Location: Launois
(49.6535°N, 4.5395°E)
Time: 01:53:40
(UTC+00:00)

Cosmos 468 Rocket - Pass Details

Date: 23 May 2024
Orbit: 741 x 777 km, 74.0° (Epoch: 16 June)

Event Time Altitude Azimuth Distance (km) Brightness Sun altitude
Rises 00:39:31 0° 334° (NNW) 3,270 8.0 -18.4°
Reaches altitude 10° 00:41:55 10° 333° (NNW) 2,336 7.2 -18.3°
Maximum altitude 00:47:12 70° 250° (WSW) 822 4.0 -18.1°
Enters shadow 00:49:49 30° 174° (S) 1,362 4.8 -17.9°
